sat.trackr.live / text

‹ back to catalog

CZ-6A R/B

NORAD 69091 · 2026-104U

ROCKET_BODY UNKNOWN UNKNOWN

§ Identity

Operator
Country
PRC
Launch date
2026-05-12
Launch site
TAISC
Launch vehicle
Mass (kg)
RCS (m²)

External: N2YO · Heavens-Above · Gunter

§ Orbital elements

Epoch: 2026-05-25T04:17:59.817984Z

Period
98.80 min
Inclination
89.0140°
Eccentricity
0.0094757
Mean motion
14.57450181 rev/d
Perigee alt
634.3 km
Apogee alt
768.5 km
Semi-major
7,079.6 km
B*
4.4846e-5
RAAN
344.1782°
Arg perigee
63.8008°
Mean anomaly
297.2908°
Rev number
186

§ Raw data

CZ-6A R/B1 69091U 26104U   26145.17916456  .00000236  00000+0  44846-4 0  99952 69091  89.0140 344.1782 0094757  63.8008 297.2908 14.57450181  1863

JSON: /api/v1/satellites/69091 · /tle

For live sub-satellite position, see the globe view (requires WebGL).

§ Visibility from observer

Set your observer location to see the next 7 days of passes ≥ 10°. The values pass through the URL so the page stays shareable.

No JS? Fill the form by hand. The geolocation button needs JavaScript.